Theta_e
319 321 322 323 323 321 318 317 320 322 324 327 329 329 327 325 324 324 325 323 315 314 319 318 315 315 314 314 314 313 311 310 310 310 310 310 309 309 309 308 307 307 305 303 303 304 305 307 310 310 310 310 310 310 312 314 314 314 316 316 314 314 315 315 314 315 317 317 316 315 314 314 315 316 315 315 316 318 318 317 317 317 317 317 317 317
317 320 322 323 320 318 317 317 317 321 322 321 323 324 324 325 324 320 320 320 314 315 322 320 316 314 313 313 313 313 314 313 312 311 311 310 309 309 309 309 308 306 304 302 302 302 304 307 309 309 309 309 309 309 311 312 313 313 314 315 314 313 312 314 314 314 315 316 316 316 314 314 315 314 314 314 315 316 315 314 315 315 315 315 315 314
319 321 320 318 318 317 317 316 316 318 318 318 321 320 322 324 322 322 322 317 314 315 322 324 318 315 315 313 312 313 314 313 311 311 311 311 310 309 309 309 308 308 306 304 302 301 303 306 307 308 308 309 309 309 309 310 311 311 311 311 312 310 310 311 311 312 314 313 314 314 312 313 314 312 312 312 313 313 312 312 313 313 313 313 313 313
323 325 320 315 318 318 318 317 315 316 317 319 321 320 323 324 322 326 326 318 315 316 320 323 319 314 315 315 315 313 311 311 312 311 311 311 311 309 309 309 309 308 306 305 303 301 301 304 306 307 308 308 308 308 307 308 309 309 309 308 308 307 308 309 308 310 311 311 311 310 309 311 312 309 309 309 308 308 309 310 311 311 311 312 312 312
324 324 318 315 318 318 319 320 318 318 321 323 322 320 322 323 321 324 325 321 323 323 320 320 320 321 321 318 317 316 314 313 313 313 312 310 310 310 310 310 308 307 306 304 304 301 301 304 305 306 308 307 307 307 307 307 308 308 308 307 307 306 307 308 307 309 311 310 309 306 305 306 306 304 304 305 304 304 306 307 308 308 308 308 308 307
321 320 318 319 317 317 320 321 322 324 323 325 325 321 320 322 322 321 322 322 326 332 323 318 325 334 333 324 318 319 320 318 315 313 314 312 310 310 311 310 308 307 305 304 304 302 301 303 305 306 307 307 307 307 306 306 307 307 307 306 306 305 305 306 307 309 311 310 310 309 307 305 302 299 298 301 302 302 303 304 304 303 303 303 303 303
320 318 322 326 320 319 321 321 324 323 321 326 328 324 320 319 321 320 322 322 328 332 321 319 329 331 328 327 326 326 326 325 320 317 315 313 311 310 309 309 309 307 305 304 303 301 301 303 304 306 307 307 307 306 306 306 305 306 306 305 305 304 304 304 305 307 308 308 307 310 311 310 307 302 298 299 301 302 301 301 300 299 299 299 299 298
320 319 321 325 323 322 321 321 324 321 322 329 327 325 322 319 320 321 322 323 327 328 321 323 331 327 324 325 327 329 329 328 325 321 318 315 313 311 309 309 309 307 305 304 303 302 301 303 304 306 306 306 307 306 306 305 304 305 305 304 304 304 304 305 306 307 308 308 307 308 310 309 309 308 303 299 299 299 298 296 295 294 294 294 294 293
320 323 322 322 324 324 323 327 326 319 324 328 321 321 323 322 323 323 323 324 324 325 324 325 325 326 328 324 323 325 325 327 325 323 322 319 316 312 309 309 309 307 304 303 303 302 301 303 305 306 306 306 307 306 305 305 305 304 304 304 304 303 304 305 306 307 308 308 308 309 310 308 305 305 302 298 295 294 293 292 291 291 291 291 291 292
320 322 320 320 323 323 327 330 324 320 323 321 317 321 324 324 326 327 328 328 327 327 328 327 324 327 330 327 325 323 323 328 325 322 321 320 320 317 312 310 309 307 304 303 303 301 301 303 304 305 306 306 306 306 305 305 305 304 303 303 303 302 303 304 304 305 306 306 307 308 310 309 304 300 297 294 292 291 290 291 290 290 291 291 291 291
319 315 315 320 322 322 325 323 317 320 321 317 322 329 329 330 331 332 331 328 329 330 328 329 326 326 330 330 328 325 325 329 327 325 326 324 324 322 314 310 309 306 304 303 302 301 301 302 304 305 305 305 306 305 305 305 305 304 303 303 302 302 303 304 303 304 305 306 306 308 310 309 304 299 295 291 290 289 290 290 290 290 290 290 290 290
320 317 318 320 320 322 324 321 316 317 317 322 333 334 330 332 331 331 331 328 331 331 327 325 323 323 327 328 328 326 324 325 324 325 329 330 330 326 316 309 307 305 303 303 303 301 300 300 301 303 303 303 304 304 303 304 305 304 304 303 303 302 303 304 304 304 305 305 305 307 307 307 305 300 295 291 290 289 290 290 289 290 290 290 290 290
322 323 323 319 317 320 325 325 320 317 317 324 333 330 328 331 331 331 331 329 330 328 321 319 320 322 325 325 326 324 321 322 320 320 322 325 327 326 318 309 305 304 303 302 302 302 300 299 299 301 302 302 302 303 302 303 303 304 304 304 303 303 303 304 304 304 304 304 305 305 305 305 303 299 295 291 290 290 290 290 290 290 290 289 289 289
325 325 322 318 319 321 323 324 323 322 321 323 326 328 330 331 330 332 331 329 330 326 319 316 321 324 326 326 325 322 320 321 321 320 319 318 318 319 316 309 305 304 303 302 302 301 300 299 299 300 301 301 301 302 302 301 302 302 302 303 303 303 303 303 302 301 302 303 303 303 303 302 300 297 293 291 290 290 290 291 290 290 290 290 289 289
327 327 324 320 322 322 320 321 326 326 321 321 324 326 329 331 333 334 332 331 332 329 320 316 322 328 331 330 325 321 322 322 323 322 317 314 313 311 310 307 305 303 302 301 301 301 300 299 299 300 301 301 301 301 301 300 301 301 300 301 302 301 300 300 300 300 301 302 302 301 300 299 297 295 292 290 290 290 290 291 291 291 290 290 289 289
324 329 328 321 320 320 319 321 325 325 322 321 324 325 327 329 330 331 328 325 327 328 324 320 323 328 329 326 320 319 321 321 320 320 318 317 313 309 309 308 305 303 302 301 301 301 300 299 299 300 300 300 300 300 300 300 300 299 299 299 300 300 299 299 300 300 300 301 300 299 297 296 294 292 291 290 290 290 291 291 291 291 290 290 289 288
327 330 323 316 318 318 318 322 322 324 325 322 321 323 324 323 324 327 325 320 321 326 327 323 325 327 326 324 321 320 320 318 318 318 318 318 315 312 312 308 304 302 301 300 301 300 299 298 299 300 300 299 300 299 299 300 300 299 299 298 298 298 297 298 300 299 299 299 298 296 294 293 292 291 291 290 290 290 290 291 291 291 290 289 289 288
328 331 321 316 321 316 313 320 321 319 321 323 324 324 320 320 326 330 329 326 325 328 328 324 326 327 326 327 326 322 322 325 325 321 318 316 316 315 312 307 304 302 301 301 300 299 298 298 298 299 299 299 299 299 299 299 299 299 299 299 298 296 296 297 298 298 298 298 297 295 293 292 291 291 291 291 291 290 290 290 290 290 289 288 288 288
325 329 324 316 319 316 312 320 323 317 316 321 327 324 322 328 330 327 328 330 329 330 330 327 324 323 322 325 326 323 323 328 328 326 324 320 317 314 310 306 304 303 301 301 300 299 298 297 298 298 298 299 299 299 299 299 298 298 298 298 298 297 297 297 297 297 297 297 296 294 292 291 290 290 290 291 291 290 290 290 289 289 289 288 288 287
324 326 327 316 313 316 316 319 324 321 316 317 320 319 321 327 328 326 328 329 330 332 331 329 326 325 324 325 326 324 323 325 326 330 332 324 315 312 309 306 304 303 301 300 299 299 298 297 297 297 298 298 298 298 299 298 297 297 297 297 297 297 296 296 296 296 296 296 295 293 291 290 289 290 290 290 290 290 290 290 289 289 288 288 287 287
322 323 327 318 312 317 321 321 322 322 319 318 320 321 320 321 322 325 325 325 329 332 331 330 328 327 328 324 324 325 326 328 328 329 331 323 315 313 310 306 304 302 301 300 299 299 297 296 296 297 297 297 297 298 298 297 297 297 297 296 296 296 295 295 295 295 295 294 293 291 290 289 289 289 290 290 290 290 290 289 289 289 288 288 287 287
323 324 327 323 316 320 324 320 317 319 320 320 321 321 320 320 322 325 325 324 325 327 328 330 327 326 331 326 323 325 329 331 325 322 326 321 314 315 312 306 303 302 300 300 299 299 297 295 295 296 296 297 297 297 296 296 296 296 296 296 295 296 296 295 295 295 295 293 292 290 290 289 289 289 289 289 290 290 289 289 289 288 288 287 287 287
325 326 328 325 320 320 321 316 313 316 318 318 320 323 321 320 322 326 327 325 324 324 324 326 326 325 326 324 323 325 326 323 316 315 322 319 313 315 313 306 302 302 301 300 299 298 295 294 295 295 295 296 295 295 295 295 295 295 296 296 295 295 295 295 295 294 294 292 291 290 289 289 288 288 289 289 289 289 289 289 288 288 287 287 287 287
324 325 326 325 322 320 320 317 313 313 315 317 320 323 322 320 320 324 327 324 324 325 322 324 326 323 321 321 321 321 320 317 314 313 318 319 315 313 311 306 303 302 301 300 299 297 294 293 294 293 294 294 294 295 295 294 294 295 295 295 294 294 294 294 294 293 292 292 291 290 289 289 288 288 289 289 289 289 289 288 288 287 287 287 287 286
323 325 326 328 327 326 324 321 317 315 315 319 322 321 319 320 321 322 324 323 324 325 323 325 327 323 322 322 318 317 317 320 322 318 317 321 320 315 310 305 302 301 301 300 299 297 295 293 293 293 293 294 294 294 294 294 294 294 294 294 294 294 294 294 293 293 292 292 291 290 289 289 288 288 288 289 289 289 288 288 288 287 287 287 286 286
323 326 325 326 329 329 327 326 323 319 316 319 322 320 318 320 321 321 322 322 324 324 323 325 325 321 321 321 317 316 319 323 327 324 319 319 316 312 310 305 302 301 301 299 298 297 296 294 292 292 293 293 294 294 293 293 293 293 293 294 294 294 294 293 293 293 292 292 291 290 289 289 288 288 288 288 288 288 288 288 287 287 287 286 286 286
325 326 323 324 327 326 326 328 325 321 318 319 321 320 318 319 319 320 322 323 324 324 323 323 323 322 322 321 319 319 321 323 326 327 327 326 317 311 310 306 302 301 300 299 298 296 296 295 293 292 292 293 293 293 294 293 293 293 293 293 294 294 293 293 293 292 292 291 291 290 289 289 289 288 288 288 288 288 288 288 287 287 287 286 286 286
324 324 322 324 325 323 326 329 324 321 320 320 320 319 319 318 318 319 322 323 324 326 325 323 322 323 323 321 321 321 322 323 324 327 330 331 323 314 309 306 303 301 300 299 298 297 296 295 294 292 292 292 293 293 293 293 293 293 293 293 293 293 293 292 292 292 291 290 290 290 290 289 289 288 288 288 288 288 288 287 287 287 286 286 286 286
322 323 322 324 324 323 326 326 322 321 321 320 320 320 319 318 318 319 320 321 322 324 325 323 324 324 322 320 320 321 321 320 320 322 323 322 320 315 310 308 306 303 301 299 298 297 296 295 294 292 291 291 292 292 292 293 293 293 292 292 292 292 292 292 291 291 290 290 290 290 290 289 288 288 288 288 287 287 287 287 287 286 286 286 286 286
320 323 323 324 324 324 325 323 321 321 321 321 320 319 319 318 318 318 319 320 321 322 322 323 325 324 320 320 321 320 319 318 319 322 320 319 321 318 313 312 308 304 301 300 298 297 296 295 293 291 290 291 291 292 292 292 292 292 292 292 292 292 291 291 291 291 290 290 290 289 289 289 288 288 288 288 288 287 287 286 286 286 286 286 286 286
319 323 323 322 323 323 323 321 319 319 321 321 320 320 319 318 318 318 318 318 320 321 320 321 323 322 320 322 323 321 319 319 319 320 320 320 320 317 315 313 309 304 302 299 298 297 296 295 293 291 290 291 291 291 292 292 293 292 292 292 291 291 291 291 291 291 290 290 289 289 289 289 289 288 288 288 288 287 287 286 286 286 286 286 286 285
319 321 321 321 323 324 323 321 318 317 318 320 320 320 319 318 317 317 317 318 319 320 320 321 322 321 321 323 322 320 320 319 319 319 320 319 316 315 317 315 310 305 303 300 298 298 297 296 294 292 291 291 291 292 292 292 293 292 292 292 291 291 291 291 291 290 290 290 289 289 289 289 289 288 288 288 288 287 287 286 285 286 285 285 285 285
319 320 321 322 324 324 324 322 318 316 319 321 321 320 318 317 317 317 317 317 317 318 320 320 320 319 320 322 321 320 319 318 318 318 318 318 314 311 312 313 309 305 302 300 299 299 297 296 294 292 292 292 292 292 292 293 293 293 293 292 292 291 291 291 291 290 290 290 290 289 289 289 289 288 288 288 288 287 286 285 285 285 285 285 285 285
318 320 320 321 324 325 323 320 318 320 323 323 322 323 320 316 316 317 317 317 317 317 318 319 319 319 320 322 320 319 319 317 316 314 313 315 316 313 311 309 306 304 302 301 300 299 297 295 294 294 294 293 293 293 292 293 293 293 293 292 292 291 291 290 290 290 290 290 290 289 289 288 288 288 288 288 287 286 286 285 285 285 285 285 285 285
317 318 320 320 322 322 320 319 321 324 324 322 322 322 320 317 316 316 317 316 316 316 317 318 318 318 319 321 319 317 316 315 313 312 311 312 313 314 313 309 305 303 303 302 301 300 297 295 295 295 294 294 294 293 293 293 293 293 293 292 292 291 291 291 290 290 290 290 289 289 289 288 288 288 288 287 286 286 285 284 284 284 285 285 285 285
316 317 318 318 319 319 318 321 325 324 320 319 318 315 316 317 316 316 318 317 316 315 316 316 316 316 317 318 317 315 314 311 310 311 311 311 310 310 310 308 304 304 304 302 300 299 297 296 296 296 295 295 294 294 293 293 293 293 292 292 292 291 291 290 290 290 290 290 289 289 289 288 288 287 287 286 286 285 285 285 284 285 285 284 284 284
317 317 317 318 319 318 318 321 322 321 320 321 318 313 314 318 317 317 319 319 316 315 314 315 316 315 316 317 316 313 311 310 311 313 313 312 309 307 306 306 304 303 303 300 299 298 297 297 297 297 296 296 295 295 294 293 293 292 292 292 291 291 290 290 290 290 290 289 289 289 289 288 287 287 287 286 286 285 285 285 285 284 284 283 283 283
316 316 317 319 319 318 319 320 320 321 323 322 318 314 314 317 316 316 319 321 319 316 314 314 316 315 314 315 315 312 312 312 314 315 314 311 307 306 307 305 301 300 301 300 299 299 299 299 298 298 297 297 296 295 295 293 293 292 291 291 291 290 290 290 290 290 290 289 289 289 288 288 287 287 287 286 286 286 286 285 285 284 283 283 283 283
313 314 315 317 318 318 318 320 321 322 322 320 317 313 313 316 315 315 319 320 320 321 318 314 314 315 315 314 313 313 313 314 314 315 314 310 307 307 308 306 301 298 300 302 302 302 302 301 299 298 297 296 296 295 294 293 293 292 291 291 291 290 290 290 290 290 290 289 289 289 289 288 288 288 287 287 287 287 286 286 285 284 284 283 283 283
312 313 314 316 318 318 317 319 320 319 319 319 316 311 311 314 314 317 321 321 321 322 319 314 314 314 314 314 312 312 313 314 316 316 313 308 306 303 304 306 304 299 298 300 302 302 303 301 299 297 297 297 297 296 294 293 292 292 291 291 290 290 290 290 291 290 290 290 289 289 289 289 288 288 288 287 287 287 286 286 285 284 283 283 283 282
311 312 313 315 317 317 317 319 319 318 320 319 313 308 310 314 314 318 322 320 319 317 312 311 314 313 313 313 311 310 312 312 311 311 307 305 305 302 298 297 297 296 297 299 300 300 300 299 298 298 297 297 297 296 294 293 292 291 291 290 289 290 291 292 291 290 290 290 289 289 289 289 289 288 288 288 287 287 286 286 285 284 284 283 282 282
312 312 313 314 316 316 317 318 318 320 320 314 307 306 310 314 317 319 314 310 313 316 311 308 311 312 311 310 309 310 311 307 304 304 304 304 306 305 298 293 293 294 294 296 298 298 298 296 296 297 297 297 297 296 294 293 292 291 290 289 291 292 293 292 291 290 290 290 289 289 289 289 289 289 288 288 287 286 286 286 285 284 284 283 282 281
313 313 313 314 315 316 317 317 319 320 315 308 306 307 310 315 321 319 311 304 305 311 312 308 308 309 309 308 307 307 306 302 299 300 301 301 302 301 297 294 294 293 291 293 295 295 296 295 294 295 296 295 296 295 294 293 292 291 290 291 293 293 292 291 291 290 290 290 289 289 289 289 289 289 288 288 287 287 286 285 285 284 283 283 282 281
313 313 313 314 314 315 316 317 318 315 309 306 310 311 311 314 317 316 312 309 305 304 306 309 307 305 306 307 305 302 301 300 299 298 298 298 298 298 296 293 291 290 290 292 293 294 296 296 294 294 294 294 294 294 294 294 293 292 292 293 294 293 292 292 291 290 290 290 289 289 289 289 289 289 288 288 287 286 286 285 284 284 283 282 282 281
313 313 314 315 314 314 315 314 312 310 306 305 310 312 310 311 310 307 308 311 309 304 305 310 309 303 303 305 302 299 299 300 298 297 298 299 297 296 295 291 289 289 290 292 292 294 296 296 295 295 294 294 294 295 294 295 295 294 294 294 294 293 293 293 292 291 291 290 290 290 289 289 288 288 288 287 287 286 286 285 284 284 283 282 281 281
310 309 311 314 313 312 312 310 307 307 307 306 305 305 306 307 306 305 306 308 308 304 303 307 306 302 301 302 301 300 299 298 297 296 296 298 297 294 293 290 288 288 290 290 291 293 294 294 294 294 294 294 294 295 295 295 295 295 295 295 294 294 293 293 292 292 291 291 290 290 289 288 288 288 287 287 287 286 286 285 285 284 283 282 281 281
308 307 308 312 313 313 314 312 309 307 306 306 303 300 300 302 302 303 305 306 305 303 302 303 302 300 300 301 303 302 298 295 296 296 295 296 295 294 294 292 288 287 289 290 290 292 292 293 293 293 293 293 294 294 295 295 294 294 294 294 293 293 293 292 292 292 291 291 290 289 289 288 288 287 287 287 286 286 285 285 284 284 283 282 281 280
309 307 308 311 312 311 310 306 302 300 300 301 301 300 300 301 301 300 300 300 300 299 298 298 298 299 301 301 301 301 297 294 295 296 294 294 294 295 295 291 285 285 288 290 291 292 292 292 292 292 292 293 293 293 293 294 294 293 293 293 292 292 292 292 292 291 291 291 290 290 289 289 288 288 287 287 286 285 285 284 284 283 283 283 282 281
307 307 309 311 309 308 306 300 298 300 301 299 299 300 300 299 299 299 296 296 298 298 296 295 296 298 300 300 298 299 297 294 294 295 295 295 296 296 292 287 284 286 289 290 290 291 291 292 292 292 292 292 292 292 292 292 292 292 292 292 292 291 291 291 291 291 290 290 290 289 289 288 288 288 287 286 286 285 285 284 284 283 283 283 283 282
306 307 308 308 308 308 308 304 302 305 308 304 299 300 300 297 297 298 297 296 298 299 299 299 296 294 295 296 295 298 299 295 293 295 296 296 297 294 287 283 284 287 288 288 289 290 290 291 291 291 292 291 291 291 291 291 291 291 291 291 291 291 290 290 290 289 289 289 289 288 288 288 287 287 286 286 285 285 284 284 283 283 283 282 282 281
307 308 306 307 308 308 308 305 302 305 309 305 300 301 300 296 295 298 297 297 297 297 299 303 301 296 295 293 291 295 298 295 292 294 297 296 292 289 286 285 286 286 287 288 289 289 289 290 290 290 291 291 290 291 291 290 290 290 290 290 290 290 290 289 289 289 289 288 288 288 287 287 286 286 285 285 284 284 283 283 282 282 282 282 281 281
Wind_Speed
3 2 2 4 7 9 10 10 7 5 6 5 5 4 4 4 5 5 5 6 2 4 6 9 10 12 12 12 10 5 6 8 10 10 10 9 8 8 10 11 10 9 7 10 16 18 18 18 18 17 16 15 15 15 16 17 18 19 19 19 20 21 22 23 24 24 25 24 23 22 22 22 21 21 22 22 21 21 21 21 21 20 19 18 19 20
3 4 7 10 10 9 9 9 5 5 4 3 4 3 3 3 5 7 4 5 1 4 6 6 8 12 12 12 10 4 6 10 13 13 14 13 11 10 12 13 10 6 5 9 14 17 18 18 18 18 17 17 17 17 17 18 19 19 20 21 21 22 22 22 23 24 24 24 23 24 24 24 24 22 22 23 22 22 22 22 22 20 20 19 19 20
1 5 11 10 4 4 4 6 6 4 3 2 3 2 3 3 4 7 5 4 1 4 5 6 7 10 11 12 11 7 10 12 12 14 15 14 13 12 13 12 9 8 7 9 11 15 18 19 19 19 18 19 19 19 19 19 20 20 21 22 22 23 23 23 24 25 25 25 25 25 26 26 25 24 23 24 23 23 23 23 21 20 21 20 19 20
4 6 11 7 6 6 3 3 5 2 1 3 3 3 4 3 2 4 5 4 1 2 3 5 7 8 8 9 10 13 13 9 10 13 14 12 13 14 12 11 11 12 12 10 10 12 16 19 19 19 20 20 20 20 20 20 21 22 22 23 23 23 24 24 25 25 26 27 26 27 27 27 27 26 25 24 24 23 23 22 21 20 21 20 19 19
7 5 3 6 8 9 5 4 6 4 3 4 5 6 5 5 6 6 4 5 3 3 3 4 8 8 7 9 12 10 6 6 10 12 12 12 11 10 9 10 12 13 13 13 12 12 15 19 20 20 21 21 21 22 22 22 23 23 24 24 24 24 24 25 25 25 27 28 28 29 28 27 27 27 25 26 25 23 23 22 21 21 21 21 21 20
8 5 4 6 6 7 7 4 6 7 4 5 5 9 10 8 8 5 3 5 4 5 4 4 5 7 4 7 10 6 2 7 10 10 13 14 9 7 9 10 11 10 11 12 12 13 16 18 19 21 22 22 22 23 23 24 23 24 25 25 25 25 25 26 26 27 28 30 31 32 31 29 29 27 25 26 26 25 24 23 22 22 22 23 24 24
5 4 5 7 6 7 7 5 6 8 5 4 5 9 11 8 5 5 1 1 1 4 3 3 0 7 6 5 8 6 6 10 10 9 13 12 8 9 10 9 9 10 10 9 11 13 16 19 21 22 23 23 24 24 24 24 24 25 26 26 27 27 27 27 27 29 31 32 33 33 32 31 31 29 25 25 27 25 25 25 25 25 26 26 26 26
4 4 4 6 6 6 6 5 6 8 7 4 4 5 8 7 6 6 5 3 3 3 4 2 3 5 10 5 6 7 7 11 12 11 11 10 9 10 9 9 9 11 11 11 11 12 16 21 23 23 24 24 25 26 25 25 25 25 27 27 27 28 28 27 28 30 32 33 32 30 30 30 30 28 27 27 27 27 28 29 29 29 29 28 27 26
4 7 7 8 5 4 6 5 7 10 6 5 3 5 6 6 5 4 5 3 1 2 4 1 4 3 10 4 1 2 6 10 13 13 12 11 9 9 9 8 9 9 11 12 12 13 17 22 24 25 25 25 26 27 27 27 26 25 26 27 27 28 29 29 30 32 32 32 30 29 28 27 26 26 28 30 30 31 32 32 32 31 30 29 27 26
1 6 8 8 6 6 5 2 7 11 5 4 5 7 6 5 4 5 4 3 3 3 5 6 6 3 8 3 3 1 3 9 11 10 11 9 6 7 9 9 8 8 9 10 11 14 19 23 24 25 25 25 26 28 27 28 27 27 26 26 27 27 29 32 33 34 33 31 29 27 26 25 26 28 31 33 34 34 34 34 33 31 30 29 27 26
2 1 2 4 4 5 4 3 2 6 6 5 6 6 7 5 5 4 2 4 2 5 6 9 11 7 6 3 4 3 4 7 8 7 8 7 5 6 7 8 8 8 8 9 9 12 17 21 23 25 25 26 27 28 28 28 29 29 28 28 28 28 29 33 34 33 32 29 27 25 24 25 28 33 36 37 37 36 36 35 34 32 31 29 27 26
4 1 1 2 2 4 6 5 3 2 4 5 5 4 4 4 4 4 4 4 1 6 4 6 9 9 8 6 3 5 6 5 7 6 8 8 7 6 6 7 8 8 9 9 8 10 14 17 20 23 25 26 28 28 29 30 31 31 31 30 30 30 31 34 34 32 30 28 26 25 24 27 30 36 40 41 41 39 38 37 35 33 31 29 28 26
3 4 3 2 1 4 6 4 4 4 2 4 5 6 3 2 3 2 3 0 3 6 3 1 3 5 9 7 6 11 12 10 8 8 8 9 8 7 6 7 7 7 9 10 9 10 11 14 19 23 25 26 28 30 30 31 31 31 31 31 31 32 33 34 34 32 30 27 26 26 26 29 34 38 42 43 42 41 39 38 37 35 33 31 30 28
3 5 2 0 2 3 8 7 3 1 4 6 6 6 5 2 1 3 3 2 4 5 3 0 2 3 6 4 8 15 15 10 7 8 9 8 8 7 6 7 7 8 9 10 10 11 11 15 21 24 26 27 29 30 31 31 32 32 32 32 33 34 34 35 34 32 29 27 26 27 29 33 38 41 43 43 42 41 39 38 37 36 34 33 31 29
5 5 4 7 4 6 11 9 6 6 5 5 4 5 5 5 4 4 4 4 4 4 4 2 2 3 2 3 7 10 9 8 6 6 6 6 7 6 4 6 7 8 9 8 9 11 12 18 24 26 27 29 30 31 31 32 33 33 33 34 34 35 35 35 34 31 30 28 28 29 32 36 40 43 43 42 41 41 39 38 36 35 33 32 31 29
4 6 6 3 1 9 11 5 5 7 3 3 2 4 3 5 5 3 3 5 3 2 3 2 4 4 4 6 8 7 9 8 7 6 6 7 5 3 4 6 7 8 8 8 9 10 13 19 24 26 28 29 30 32 32 34 35 35 34 35 35 36 36 35 34 32 31 30 30 32 36 39 42 43 43 42 41 40 38 37 36 34 32 31 30 30
2 5 5 2 2 4 6 3 4 4 3 2 2 4 4 4 5 2 2 1 3 3 4 3 5 5 3 8 8 6 10 10 9 9 9 8 3 3 5 6 7 8 8 9 10 10 12 18 23 26 28 29 31 32 34 35 36 36 35 35 35 35 35 35 34 33 32 31 33 35 38 41 43 43 43 42 41 39 38 36 34 33 32 32 31 30
4 3 4 1 2 3 1 3 3 3 3 5 4 6 2 2 2 2 2 2 2 4 5 3 6 6 2 6 5 3 5 10 10 9 9 8 4 5 6 6 6 7 7 8 8 9 12 18 22 25 27 30 32 34 34 35 35 35 35 36 36 36 36 36 35 34 33 33 35 38 40 42 43 43 43 42 40 39 38 37 35 34 33 32 32 31
4 2 5 1 3 3 3 4 2 5 2 4 4 4 4 2 1 2 2 3 2 4 5 2 4 5 6 6 4 3 6 9 10 8 8 9 7 6 6 6 6 6 7 8 8 9 11 17 22 24 26 28 30 32 33 33 33 32 33 35 37 36 36 35 34 34 34 35 37 40 41 42 43 43 42 41 40 39 39 37 36 35 34 33 32 31
3 3 4 2 0 1 2 2 4 2 2 3 2 2 2 2 3 4 3 2 3 2 4 3 4 4 7 7 7 11 11 9 10 9 8 9 7 6 6 6 7 8 8 8 9 9 10 15 21 23 26 28 30 31 31 31 31 32 33 34 36 36 35 35 35 35 36 37 38 40 41 41 41 42 41 41 40 40 38 37 36 35 34 34 32 31
2 3 3 2 2 1 2 4 8 10 6 3 4 4 3 1 2 1 1 2 4 3 2 4 6 6 4 4 8 11 10 9 9 8 8 8 5 6 7 7 8 8 8 8 9 8 9 14 19 21 24 26 28 29 30 30 31 32 33 34 35 36 36 36 37 37 37 38 39 41 42 41 41 41 41 41 40 39 38 37 36 35 35 34 33 31
3 3 3 2 1 4 5 4 6 9 8 6 7 8 9 7 4 2 3 2 3 3 4 3 8 9 4 4 7 8 8 7 7 6 8 8 5 6 7 8 9 8 8 8 8 8 9 13 18 20 22 24 26 27 28 29 29 31 33 34 34 36 36 37 38 38 38 38 39 40 41 41 41 41 41 41 40 39 39 38 37 36 35 34 33 32
4 3 3 3 4 6 6 4 2 4 3 3 3 5 6 7 7 6 6 4 3 2 2 3 5 9 3 5 6 6 6 5 4 6 7 8 4 5 7 7 8 8 7 8 8 8 10 15 18 20 22 24 25 26 26 27 28 30 32 34 34 35 36 36 37 37 37 37 38 39 40 40 40 40 40 41 41 40 40 39 38 37 36 34 33 32
3 3 3 2 2 3 4 4 3 1 2 1 1 3 6 9 9 6 4 4 4 5 4 3 6 7 2 1 3 3 5 4 4 6 7 8 6 4 6 7 7 7 6 7 7 7 10 14 17 18 20 22 24 25 26 27 28 29 31 32 33 34 34 35 35 36 36 36 37 38 39 40 40 41 41 41 42 41 41 39 39 37 36 35 33 33
5 5 5 2 1 3 3 3 2 1 1 3 4 5 8 11 8 2 1 3 3 9 10 6 10 8 2 4 3 3 6 6 7 6 6 7 6 4 5 5 6 7 6 7 7 7 9 11 14 17 20 22 24 25 26 27 28 29 30 31 33 33 34 34 35 36 37 37 38 39 41 41 42 42 43 43 42 42 41 40 39 38 36 35 34 33
7 6 7 7 7 8 8 7 6 4 3 2 5 8 10 12 11 7 3 3 7 9 10 10 12 5 1 5 5 5 6 7 7 6 5 6 5 4 5 6 6 7 8 9 9 8 9 10 12 17 20 22 24 25 26 27 28 28 29 31 33 34 34 34 35 36 37 38 40 41 42 42 43 43 43 43 43 42 41 40 39 38 37 36 35 34
3 4 11 15 15 16 14 8 7 10 8 8 10 13 14 15 14 10 6 8 8 4 7 15 16 8 6 6 6 7 8 7 7 5 5 6 5 5 5 6 6 7 7 8 8 8 9 10 12 16 19 21 23 25 27 28 29 30 31 32 33 34 35 36 36 37 38 39 39 40 42 42 43 43 43 42 42 41 41 40 39 39 38 37 36 35
3 5 13 17 19 20 14 7 11 15 15 17 16 16 17 16 15 13 14 14 8 5 11 17 11 11 17 12 10 10 8 7 7 7 7 6 5 5 4 5 6 6 6 7 9 10 11 11 11 14 18 21 22 24 26 28 30 31 32 33 34 34 35 36 37 37 38 38 38 40 42 42 42 41 41 40 40 40 40 40 40 39 38 37 37 36
3 7 11 14 17 18 9 6 12 15 14 16 18 19 19 18 18 20 23 20 11 9 19 14 10 16 23 15 12 12 11 11 10 7 5 3 3 4 5 5 7 7 8 9 11 11 12 11 9 12 17 19 20 23 24 26 28 29 30 31 33 34 35 36 36 37 37 37 39 40 40 39 39 39 38 38 39 39 40 40 40 39 39 38 38 37
3 6 9 11 14 17 10 6 10 13 11 12 16 19 19 20 23 25 25 23 17 17 22 13 8 18 20 12 11 11 9 10 5 2 3 4 5 5 6 7 8 8 9 11 12 11 10 9 9 12 16 19 23 26 26 27 28 29 30 31 33 34 34 35 35 36 37 37 37 37 35 35 36 37 37 38 38 39 39 40 39 39 39 39 38 37
5 5 5 6 8 14 11 7 8 11 11 12 12 14 17 21 23 24 22 19 16 18 22 14 11 18 14 7 7 5 4 4 3 4 6 6 6 6 7 8 8 9 11 11 10 9 8 8 9 13 17 22 27 28 28 28 28 29 31 31 32 33 33 34 35 36 37 37 35 34 33 34 35 36 36 37 38 38 39 40 40 39 39 39 38 37
6 4 2 5 7 12 12 10 9 7 6 8 10 15 21 20 18 18 17 16 15 18 20 14 14 19 11 5 4 4 6 6 7 8 7 6 7 8 9 10 10 11 12 10 8 8 9 10 11 14 20 24 27 28 29 29 28 29 32 33 33 32 33 34 36 36 36 36 35 34 34 35 35 36 37 38 38 39 39 39 39 39 40 40 39 38
8 7 4 6 8 11 10 11 9 6 3 7 13 21 23 17 14 15 15 17 19 18 15 14 18 20 8 5 5 6 6 7 8 8 7 7 7 8 9 11 11 10 9 8 9 10 11 12 15 19 23 25 27 30 32 31 31 33 35 34 33 33 34 35 36 36 35 35 36 36 36 36 36 37 37 38 39 39 39 39 39 40 40 40 39 39
7 10 7 6 7 9 8 9 7 5 9 10 9 13 17 18 18 19 19 21 22 18 14 14 18 16 6 7 9 9 8 9 9 9 8 7 8 9 10 10 10 8 8 8 10 11 11 12 17 21 23 26 29 30 30 31 33 33 32 31 31 33 34 35 35 35 35 35 36 37 36 35 36 37 37 38 38 38 39 39 39 40 40 40 40 40
7 8 6 4 4 5 5 7 5 9 11 7 3 3 11 20 23 22 21 21 19 18 18 19 19 17 9 7 9 9 9 9 7 7 8 7 8 10 10 11 9 8 8 9 9 9 9 12 16 19 23 26 28 27 27 30 32 29 28 30 32 34 35 35 35 34 35 36 36 36 35 35 36 37 37 37 37 37 37 38 38 39 40 41 42 43
10 8 3 2 3 1 4 7 9 5 3 3 4 3 5 11 15 16 16 18 18 19 20 21 23 20 13 9 6 5 4 3 3 4 6 8 8 9 9 9 9 9 9 10 11 12 15 19 22 23 25 25 26 27 29 31 31 29 29 31 33 34 35 34 33 34 35 36 36 35 36 37 37 36 36 35 35 35 36 38 39 41 41 42 42 42
12 10 5 4 5 3 4 7 4 4 5 6 4 3 5 8 12 14 12 16 19 19 18 20 21 20 15 11 7 3 2 2 4 6 6 8 8 7 7 7 9 10 10 12 14 16 18 22 23 23 23 23 25 29 30 30 30 30 29 30 32 32 32 31 33 35 36 35 35 36 36 36 35 34 33 33 34 36 39 40 41 41 41 41 41 41
9 10 9 8 6 4 5 6 3 4 10 9 5 7 8 8 11 13 9 11 13 15 17 18 18 17 17 14 8 6 4 1 7 9 6 7 6 6 6 6 8 10 10 11 13 12 13 16 18 19 20 21 24 27 27 27 28 29 28 28 29 29 29 31 34 35 35 34 34 34 34 34 34 34 34 35 37 39 40 41 40 41 41 41 41 42
7 7 8 8 5 5 7 7 6 8 9 5 7 9 9 8 9 10 3 9 8 11 15 17 17 19 19 14 7 8 4 6 11 9 5 8 8 7 8 6 5 7 9 10 12 12 12 14 15 16 18 20 22 24 24 26 27 28 27 27 27 27 28 32 35 34 33 33 32 32 33 33 35 35 36 37 38 39 40 40 40 40 41 41 41 42
7 4 6 8 7 7 9 7 5 6 5 4 7 7 7 10 12 11 4 10 7 9 13 16 19 20 15 9 8 8 8 10 10 7 6 9 7 5 6 6 5 7 9 11 12 12 13 14 15 16 18 20 21 22 24 25 26 27 27 25 25 27 31 34 34 32 31 30 30 30 32 33 34 35 36 37 38 38 39 39 39 39 39 40 40 40
5 4 5 9 9 9 10 8 4 3 5 4 6 7 9 10 9 9 10 7 4 6 7 11 15 13 9 9 9 8 8 6 3 3 6 9 7 5 4 6 6 7 9 12 12 13 14 15 16 17 19 19 20 21 23 25 26 26 25 23 25 29 32 33 30 28 28 28 28 29 30 32 33 35 36 36 36 36 37 37 37 38 38 39 39 38
6 5 4 7 8 6 7 7 4 4 5 5 7 5 7 8 6 9 6 0 2 6 5 6 9 8 8 10 9 7 5 2 3 4 6 8 8 6 5 7 7 6 7 9 11 14 16 16 14 15 16 17 18 20 22 25 25 25 24 24 26 29 28 26 25 24 24 25 26 28 29 30 32 33 33 34 34 34 35 35 36 36 36 36 37 37
7 6 5 6 6 3 4 6 5 5 4 11 13 4 4 5 6 5 2 3 1 5 5 5 6 6 8 9 7 6 6 4 4 5 6 6 7 8 7 7 9 9 10 12 13 16 18 18 16 17 17 17 18 20 22 24 25 24 24 24 24 23 21 20 21 21 21 22 24 26 27 28 30 30 31 33 33 34 34 34 34 34 34 35 36 36
6 7 5 6 5 5 6 8 5 2 6 13 13 8 7 7 4 4 5 2 1 3 5 5 5 6 8 9 8 7 7 6 5 6 6 6 7 8 7 8 10 12 14 15 16 17 19 19 19 17 17 17 18 19 20 21 21 21 22 20 17 15 15 16 16 17 18 20 21 23 25 26 27 28 30 31 32 32 33 33 33 33 34 34 35 35
6 6 4 4 5 4 4 4 3 2 6 9 6 4 8 8 3 3 5 4 2 4 5 5 6 6 7 9 9 7 6 6 6 6 7 7 8 8 7 7 9 12 14 15 15 15 15 17 17 16 15 15 15 15 16 16 15 17 17 14 11 11 12 12 13 15 16 18 19 21 22 24 25 27 28 29 30 31 32 32 32 33 34 34 34 35
3 3 2 3 3 3 1 3 3 2 5 7 3 2 3 6 4 4 4 4 4 6 5 5 7 8 8 9 9 6 6 7 8 6 6 7 6 6 6 7 8 11 13 14 14 13 13 14 15 15 14 13 13 13 13 13 12 12 11 9 9 9 10 10 12 13 14 16 17 19 20 22 23 25 26 27 29 30 31 32 33 34 34 34 35 36
2 3 3 2 3 4 4 2 4 3 5 7 4 1 1 2 3 4 4 4 5 6 5 5 7 9 8 9 9 8 7 8 8 6 6 6 6 6 6 6 8 10 12 13 14 13 13 14 14 14 14 13 13 12 12 12 11 10 8 7 7 8 9 10 11 12 14 15 16 17 19 20 22 23 25 26 28 30 31 32 33 34 34 35 36 36
2 5 4 3 4 5 3 3 1 2 3 4 3 2 2 3 3 2 1 2 5 5 4 4 6 8 8 7 8 9 8 8 8 8 7 6 6 6 6 6 9 10 11 11 12 12 12 13 13 13 13 12 12 12 11 11 11 11 9 8 7 7 9 11 12 13 13 14 15 16 18 19 20 22 24 25 27 29 31 32 33 34 36 37 37 36
4 5 5 4 4 1 2 3 1 2 3 4 6 5 4 4 5 4 3 4 7 7 6 5 4 5 8 8 8 10 9 8 8 9 8 7 6 6 6 7 10 12 12 11 11 12 12 12 12 12 12 11 11 11 11 11 11 11 11 11 10 9 9 11 12 13 13 14 15 16 17 18 20 21 23 24 26 28 29 31 32 34 36 36 36 36
5 5 4 5 5 4 7 7 7 4 2 7 9 7 6 5 6 7 6 6 7 8 9 8 5 4 5 6 7 10 10 8 7 7 8 7 6 6 7 9 11 12 12 12 11 11 11 10 9 10 10 9 9 10 10 10 11 11 12 12 12 11 10 10 11 12 14 15 15 16 17 18 19 20 22 23 24 26 27 28 30 31 33 34 34 34
6 7 7 7 6 7 8 9 9 5 2 5 8 8 7 6 7 8 9 8 8 8 9 10 8 5 4 3 4 7 10 9 7 8 8 6 6 8 10 12 13 13 14 14 13 12 11 10 9 9 9 8 7 7 7 7 8 9 10 11 12 12 12 12 12 13 14 14 15 16 16 17 18 19 20 22 23 24 25 26 28 29 31 33 33 33
Wind_Direction
105 136 188 195 209 208 200 198 194 165 135 130 135 156 197 212 267 250 247 280 202 164 243 225 229 248 251 260 257 213 186 221 240 242 242 231 217 215 216 219 213 211 209 193 195 197 197 198 193 190 188 186 186 186 186 184 182 179 179 177 166 163 166 164 158 156 159 157 153 149 146 143 142 145 145 142 144 147 152 154 155 153 150 155 156 153
97 173 222 221 215 206 200 199 174 131 131 113 137 188 253 215 253 258 243 288 183 167 260 250 242 254 251 257 261 193 175 224 227 227 235 228 219 218 217 219 209 195 181 183 196 196 195 196 191 188 186 184 184 182 183 184 182 179 178 180 175 168 166 167 164 161 161 161 160 156 150 144 143 146 146 143 145 150 154 153 152 150 149 154 154 153
145 225 235 227 186 130 171 193 181 170 163 128 125 158 254 245 271 282 279 315 109 176 263 283 266 260 254 255 256 223 208 229 227 222 230 224 218 219 217 214 196 183 184 187 194 194 193 192 189 189 185 186 187 180 180 183 180 178 176 175 172 168 167 167 165 162 160 158 158 155 149 147 146 147 147 145 147 151 153 151 150 151 151 153 154 154
198 245 240 209 138 135 159 156 152 153 182 184 163 161 236 247 259 275 292 332 353 216 267 295 285 269 259 257 253 239 228 240 246 235 236 229 222 222 216 205 194 192 190 188 190 189 191 189 188 190 187 185 184 179 179 180 179 177 175 172 167 166 167 167 165 164 161 157 155 152 148 148 147 145 146 145 145 149 150 148 150 152 153 153 153 155
217 237 220 152 158 172 159 116 140 160 242 236 199 191 220 232 217 227 290 331 338 332 350 333 300 274 241 238 246 249 236 246 252 245 246 242 231 224 212 203 201 197 188 185 187 185 186 188 188 189 188 185 182 181 180 179 179 178 176 173 171 171 172 172 172 171 168 161 154 147 141 140 139 139 143 143 142 146 147 147 148 151 154 153 152 153
242 230 112 120 161 168 158 166 175 173 209 269 226 204 215 222 227 240 332 2 353 325 343 19 308 279 246 231 247 270 279 247 245 239 244 245 232 213 211 209 200 195 191 186 183 182 183 185 185 187 189 186 183 183 182 180 181 180 178 177 177 177 176 176 176 174 170 164 157 151 145 142 139 137 142 144 144 147 147 147 149 150 152 150 148 147
241 216 114 123 152 160 173 205 210 178 169 264 244 207 214 212 224 247 218 63 274 261 298 52 292 277 281 232 232 240 244 254 252 241 245 246 231 214 216 212 194 188 188 183 182 181 181 182 182 187 189 188 185 183 183 182 181 181 181 180 181 181 180 178 176 173 168 161 157 156 155 153 150 147 148 150 150 151 150 148 149 148 146 145 143 141
188 184 119 119 127 149 180 214 214 173 151 238 250 182 187 193 210 220 181 191 235 263 317 47 106 278 282 262 223 209 218 258 264 255 253 247 231 225 222 212 197 190 184 179 182 183 185 185 183 185 188 187 185 183 182 183 183 183 183 184 183 182 182 180 176 172 167 161 158 157 156 156 157 158 157 155 154 152 151 149 147 145 143 142 141 141
159 178 180 161 144 169 196 213 186 157 159 245 222 134 146 165 180 164 148 185 294 1 302 239 125 256 274 281 24 191 208 250 260 256 257 252 233 224 225 216 200 192 186 181 183 185 187 186 184 185 185 185 185 184 183 184 186 186 185 185 185 183 182 179 175 171 167 165 164 163 162 160 161 161 159 157 154 151 150 148 147 146 145 145 144 144
145 196 191 168 171 199 202 223 172 160 183 213 127 97 77 79 82 87 117 124 54 315 247 202 163 232 269 238 108 93 214 238 252 255 257 261 244 220 218 213 198 185 184 186 185 185 186 184 182 182 182 182 184 185 186 186 186 187 186 186 186 186 184 178 174 172 171 172 172 171 172 169 165 160 157 155 152 151 151 150 149 149 149 148 147 146
300 276 188 167 183 186 140 73 159 163 161 137 104 67 49 36 36 49 51 82 54 278 235 192 183 192 269 266 164 199 217 220 237 257 268 280 276 237 217 204 192 182 181 182 181 180 182 181 179 179 181 181 182 185 187 187 187 188 188 188 188 189 187 181 177 176 177 180 180 180 182 179 171 164 159 156 154 153 154 153 152 152 151 151 150 149
323 326 251 227 170 121 99 73 23 62 118 113 89 84 72 353 6 21 357 48 183 261 243 200 188 185 234 258 223 246 263 241 225 237 261 272 273 247 220 204 191 182 178 174 172 173 172 175 177 178 179 179 180 183 186 187 188 189 189 190 189 189 188 184 182 183 184 185 186 188 189 184 177 170 165 161 158 158 158 156 155 155 154 153 153 153
282 233 261 312 204 138 115 96 31 26 95 112 103 112 118 324 354 350 315 59 222 258 285 227 166 203 241 253 259 261 263 252 230 224 238 251 260 247 217 205 191 177 177 175 175 174 171 175 178 179 179 179 180 183 186 187 187 188 190 191 191 189 188 186 185 187 189 190 191 192 190 185 178 172 168 165 162 162 162 161 159 159 158 157 157 157
263 290 302 168 259 182 155 160 165 184 178 164 148 144 151 159 207 262 266 266 258 270 302 286 168 246 275 271 247 248 256 261 247 236 236 239 253 258 228 199 188 183 183 182 179 177 178 180 179 180 180 180 182 184 186 187 187 187 188 190 192 190 189 189 189 190 191 193 195 194 190 184 176 172 170 168 166 165 166 165 164 164 163 161 160 159
214 281 206 179 213 188 182 188 165 137 160 184 157 142 160 161 170 210 215 227 256 286 305 284 192 205 223 252 238 239 265 281 263 252 254 249 254 263 235 191 184 190 189 185 184 183 185 182 180 181 182 182 183 184 185 187 188 188 188 190 191 190 189 190 191 191 193 194 194 192 187 181 176 173 172 170 170 169 169 169 168 167 165 163 161 160
197 269 240 212 213 171 183 195 118 106 137 223 118 118 183 182 169 196 201 180 181 298 290 229 224 217 211 263 268 256 269 273 265 268 268 265 264 234 208 193 188 194 189 188 189 187 187 184 182 182 183 183 184 184 186 187 188 189 189 190 191 191 190 191 192 192 193 194 192 189 184 179 176 175 174 173 173 172 172 172 171 169 167 165 163 162
168 280 282 346 4 178 186 178 128 138 176 166 137 174 200 167 151 179 270 109 102 274 267 194 245 289 308 281 277 268 271 273 271 268 258 259 257 192 209 204 196 197 191 193 192 188 187 185 186 186 185 185 184 185 188 189 190 191 190 189 189 190 190 191 193 193 193 193 190 186 183 180 178 178 177 176 175 175 175 175 174 171 169 168 167 166
165 258 292 96 188 256 233 120 67 16 129 129 178 199 154 79 100 118 259 327 54 261 271 203 241 277 281 273 305 353 292 277 269 263 262 260 231 209 224 212 203 199 190 194 191 189 190 188 189 189 188 188 187 187 189 190 191 191 190 190 188 189 189 190 192 193 193 192 189 186 184 182 181 181 181 179 178 178 178 177 176 174 172 171 171 169
152 227 299 66 186 291 6 115 67 352 58 127 183 187 120 133 202 123 181 231 199 249 281 273 259 251 205 224 271 266 259 268 272 275 275 263 232 219 228 211 204 195 185 194 191 189 193 193 192 190 189 190 189 190 190 190 191 189 189 190 190 192 192 191 192 192 194 194 191 189 186 184 184 184 183 182 181 181 181 180 178 177 176 175 174 174
141 202 269 341 263 323 10 166 181 215 18 50 94 146 99 147 176 163 170 172 164 231 282 305 299 253 220 206 201 220 232 238 254 270 274 261 231 213 215 203 201 196 192 197 194 193 194 194 195 192 190 191 190 191 191 189 189 188 189 190 192 194 193 192 193 193 194 194 193 191 188 187 187 186 186 185 184 185 184 182 181 180 179 178 178 177
126 204 234 319 336 175 196 210 187 180 175 156 159 172 187 140 101 158 208 129 133 166 218 278 287 268 244 207 192 210 222 219 227 244 266 271 233 201 206 200 200 200 199 199 193 193 192 191 194 194 193 193 191 192 192 191 190 189 190 192 193 194 194 193 194 194 195 195 193 192 190 190 189 189 189 188 188 188 186 185 185 183 183 182 181 181
170 191 183 172 218 207 227 244 203 192 188 183 189 191 186 170 137 160 239 195 139 183 181 196 270 267 238 188 197 209 216 216 215 223 260 277 237 200 206 200 200 200 196 195 189 185 186 187 190 191 192 193 193 194 194 194 192 190 191 194 195 197 196 195 195 196 196 196 195 194 193 192 192 191 191 190 190 190 189 188 188 187 186 185 184 184
141 117 149 184 215 221 241 268 226 201 182 146 198 202 176 174 171 174 215 209 156 216 171 128 269 275 246 176 201 221 230 232 224 220 255 279 255 210 210 201 199 200 192 186 183 182 183 185 187 188 190 192 194 196 195 194 194 193 194 196 198 198 198 198 198 197 197 196 196 196 195 195 195 194 194 194 193 193 192 191 191 190 189 188 187 188
103 126 178 229 312 311 307 319 347 56 109 117 226 179 167 197 199 183 200 182 165 207 174 135 254 265 306 224 218 252 275 275 254 227 239 270 275 226 206 196 194 193 184 180 180 178 179 180 182 185 189 193 194 195 196 195 196 197 197 198 199 200 200 200 199 198 197 198 198 198 198 198 198 197 197 197 196 195 194 194 194 193 192 191 191 190
173 182 176 167 279 320 328 301 285 260 169 209 222 195 197 205 191 159 72 116 201 216 178 184 243 240 275 311 297 294 294 287 266 235 220 245 259 229 199 191 190 185 174 177 178 174 175 177 182 187 191 193 194 195 195 196 197 198 198 199 200 201 201 201 200 200 200 200 200 201 201 201 200 200 200 199 199 198 197 197 196 196 195 195 194 194
179 180 173 183 213 227 225 221 211 185 163 207 213 197 206 204 185 188 198 183 230 216 171 200 239 233 311 298 283 278 279 278 270 250 232 239 242 219 194 185 186 183 181 183 180 177 180 182 186 190 193 194 194 194 194 195 197 199 200 201 202 202 202 202 202 202 202 202 202 202 202 203 203 202 202 202 201 200 199 199 199 198 198 198 197 197
153 189 192 196 209 219 226 219 153 134 153 203 208 195 201 205 196 197 208 214 219 180 184 222 231 241 261 243 238 250 244 248 264 261 254 252 237 216 199 187 186 187 185 182 177 180 184 186 190 191 192 194 194 194 195 195 197 199 200 202 203 204 204 203 203 202 203 203 202 202 203 204 205 204 204 204 202 202 202 202 202 202 201 200 200 200
116 213 209 209 218 225 228 199 146 149 175 200 202 197 202 202 194 197 215 218 186 140 234 233 211 237 251 227 212 236 234 236 250 244 246 247 226 209 185 171 182 187 184 181 183 187 190 192 193 189 189 191 193 194 196 196 198 200 201 202 203 204 204 204 202 202 202 202 202 204 206 206 206 206 205 205 204 204 204 205 205 205 204 203 203 203
156 219 215 215 230 237 227 163 164 174 185 197 198 200 202 197 193 202 217 218 183 192 240 231 170 221 246 233 216 226 227 231 235 227 227 215 188 183 166 172 189 190 189 192 194 195 195 194 189 182 184 186 189 193 196 198 200 201 202 203 203 204 204 204 202 201 201 203 204 206 207 206 206 207 206 206 207 207 207 207 207 207 206 205 205 205
183 225 219 206 224 236 224 168 181 190 188 199 204 203 200 197 199 206 216 217 205 218 241 237 203 237 247 230 217 222 221 229 228 173 173 183 187 184 180 195 203 199 199 201 201 199 193 186 178 177 181 184 190 195 196 198 199 199 202 205 204 204 204 203 202 202 202 204 206 207 207 207 207 208 208 208 209 209 209 209 209 209 208 208 207 206
194 218 212 180 214 237 224 186 192 197 195 205 210 210 209 204 204 209 216 217 212 228 241 243 253 258 246 200 202 202 160 171 164 173 200 207 199 187 194 213 211 205 210 207 200 190 176 171 174 180 187 192 195 196 196 198 198 198 202 205 205 204 203 203 204 204 205 206 207 208 208 209 209 209 210 211 211 211 210 210 211 210 210 209 209 208
195 206 152 141 207 234 217 192 190 182 190 217 223 221 216 207 204 209 214 212 206 220 235 238 247 252 240 148 157 171 154 174 193 199 210 216 205 192 202 217 215 213 213 203 185 175 173 180 183 188 195 198 197 196 197 197 195 197 203 205 205 204 203 205 206 206 207 207 207 208 209 210 210 210 211 212 212 212 211 211 211 211 211 210 209 209
187 196 186 174 211 237 216 184 167 142 171 228 231 226 215 201 198 206 213 216 209 209 219 222 233 244 230 138 186 204 188 205 212 203 202 209 209 208 214 219 219 217 206 183 176 182 186 190 192 195 198 198 198 199 200 197 195 200 204 204 204 203 203 205 207 207 208 208 208 209 210 210 210 210 212 213 213 213 212 212 212 212 212 211 211 211
188 199 201 187 212 234 202 154 139 174 211 221 232 227 206 188 194 204 211 216 211 209 218 226 238 246 213 164 205 214 203 213 216 208 204 198 196 208 220 224 222 210 191 182 189 192 193 195 197 200 201 201 203 203 201 199 201 205 205 202 202 202 203 205 207 207 208 208 209 210 210 210 210 211 213 213 213 213 212 212 213 213 213 213 212 212
189 201 201 182 212 226 156 133 170 216 221 230 305 263 195 188 194 204 216 220 212 212 224 235 243 245 224 196 211 217 217 224 224 216 213 206 195 196 208 216 211 195 187 192 197 196 195 195 196 199 202 204 204 201 200 202 204 203 203 202 202 203 204 206 206 207 209 210 211 210 209 210 211 212 213 213 212 212 213 213 214 214 214 214 214 215
184 195 197 167 189 171 133 180 210 233 269 287 317 307 192 178 186 201 226 234 219 211 218 228 238 241 235 222 219 225 231 240 267 243 216 212 209 198 201 204 192 186 193 195 195 196 196 197 198 200 202 202 200 199 201 204 202 200 202 203 203 204 205 205 206 208 210 211 211 210 210 212 212 212 212 212 211 212 214 216 217 217 216 216 216 216
185 187 190 198 199 177 184 210 231 340 308 258 250 223 172 159 173 186 216 236 224 212 213 223 234 241 242 235 216 174 97 41 315 279 230 216 211 188 188 194 180 184 195 196 198 201 201 201 202 201 200 198 198 201 204 203 200 198 200 201 202 204 203 204 207 211 212 212 211 211 212 212 211 210 211 211 212 215 217 218 219 218 217 216 216 217
196 189 188 201 204 174 195 221 230 260 249 236 214 194 180 173 174 173 198 242 226 206 209 220 228 234 240 238 206 132 91 309 271 259 226 206 192 161 169 188 180 183 189 189 195 202 205 207 207 204 202 199 201 204 204 201 198 197 197 199 200 201 201 205 211 213 213 213 213 212 212 212 212 213 213 214 217 219 220 220 220 220 220 219 219 219
218 208 193 200 202 179 197 214 210 225 241 224 189 184 170 155 134 123 178 257 220 185 197 209 218 225 230 227 184 132 136 240 254 251 200 177 181 171 168 166 150 165 182 187 194 199 203 206 205 202 201 201 203 205 203 200 197 195 197 200 200 199 203 209 215 215 214 215 215 214 215 216 217 217 217 218 221 222 222 223 224 224 223 223 223 223
212 210 193 203 210 197 202 216 218 231 251 215 190 180 157 142 123 119 209 253 214 179 187 195 209 221 218 193 155 156 190 220 240 241 180 161 162 156 156 156 150 164 178 186 192 194 192 190 187 186 192 199 203 203 200 198 195 194 198 200 198 201 209 215 218 218 217 218 217 218 219 220 220 221 221 223 225 226 226 226 226 226 226 226 226 226
197 193 193 207 213 204 206 220 240 258 250 211 181 168 149 132 131 170 213 234 197 186 192 192 204 211 189 161 166 189 206 212 210 182 147 137 132 123 126 138 148 166 178 182 183 178 174 176 178 182 189 196 198 196 195 193 191 194 197 197 199 209 217 221 221 220 220 220 220 221 223 223 225 226 227 228 228 228 228 228 228 228 228 228 228 227
184 187 195 204 207 206 209 216 234 260 236 155 131 164 167 146 173 212 217 191 160 178 177 190 198 185 165 171 182 186 181 147 111 125 128 128 132 131 120 116 124 140 158 166 168 164 162 164 170 176 182 188 191 190 190 189 189 191 193 196 207 218 223 223 223 222 222 222 223 224 226 227 228 229 230 230 230 229 230 230 230 231 230 230 229 229
177 176 194 198 190 178 196 202 213 248 208 137 124 141 222 197 197 202 141 31 248 173 154 174 187 171 166 173 169 151 142 132 120 121 122 127 130 131 139 144 143 143 145 150 159 163 158 154 155 161 166 173 180 182 184 186 186 187 192 202 214 222 223 222 223 224 224 225 226 227 229 230 231 232 232 232 231 230 231 231 230 231 231 230 230 230
182 180 196 200 185 177 194 206 209 199 169 155 147 162 206 206 184 154 147 144 242 190 162 163 175 177 169 158 146 142 139 135 139 138 132 137 144 146 153 158 151 147 147 149 154 158 154 147 143 145 151 159 168 174 179 183 184 186 196 208 218 221 222 224 224 224 225 227 228 230 231 232 234 234 234 233 232 230 230 231 230 230 231 230 230 230
207 196 185 182 190 192 186 193 204 171 170 173 167 177 195 191 161 142 160 150 171 198 184 160 167 176 162 144 139 144 151 154 162 163 151 149 154 153 151 151 147 142 139 138 140 145 146 142 138 138 142 152 162 169 176 183 186 191 201 209 214 217 222 223 220 222 225 228 230 232 233 233 234 235 234 233 232 230 230 229 229 229 229 229 228 229
234 211 179 163 193 238 228 160 158 202 204 197 216 307 203 184 162 163 171 154 162 183 178 163 165 163 156 150 144 147 165 162 156 158 151 146 149 145 136 134 135 133 132 133 136 139 139 139 141 143 145 152 162 168 175 185 193 199 204 205 206 213 218 216 216 220 223 227 230 231 232 232 233 234 234 234 234 234 233 232 230 229 228 228 228 229
270 199 182 170 174 196 225 188 148 184 217 206 207 343 2 179 170 175 189 183 165 166 170 166 154 146 151 156 151 152 163 156 147 149 149 145 151 155 145 136 135 137 138 139 141 144 145 146 150 153 157 163 169 174 180 189 196 202 206 206 206 210 212 212 215 219 221 225 228 229 230 232 233 233 233 233 233 233 233 233 232 230 229 228 227 228
201 164 164 191 184 177 228 281 301 296 266 223 197 194 201 189 163 141 172 151 129 125 131 132 133 141 153 158 150 148 154 157 153 152 155 160 163 162 158 149 142 139 138 141 149 156 159 160 161 165 172 175 177 183 190 194 199 204 208 211 211 210 211 214 216 220 224 226 228 230 232 233 234 234 234 233 233 233 232 232 232 231 232 233 232 231
124 149 167 172 164 171 277 255 169 14 321 255 229 232 231 199 160 129 117 128 125 121 115 103 105 137 151 154 150 144 150 168 169 155 152 162 165 160 157 150 145 145 147 153 162 169 171 173 173 177 184 186 186 192 199 200 203 207 210 216 219 216 216 219 220 223 227 228 229 232 233 234 235 235 236 236 235 235 235 235 236 237 239 240 240 240
145 174 173 142 153 208 231 202 168 152 232 226 214 211 209 191 158 140 142 147 145 143 133 113 83 80 118 143 153 150 154 168 172 156 154 164 168 163 153 143 145 153 158 161 167 174 179 182 184 188 194 193 190 197 204 207 211 215 218 222 225 225 225 226 226 227 230 231 232 234 234 234 235 235 236 237 237 237 237 238 239 241 243 244 244 244
181 179 171 166 188 218 215 187 171 176 235 210 187 181 182 175 157 155 163 164 162 159 146 132 122 115 114 132 157 158 157 162 164 159 159 163 164 161 158 156 157 162 166 169 172 175 178 182 189 197 202 198 193 198 206 212 217 223 227 231 235 238 238 237 236 237 238 239 240 241 241 241 240 239 239 240 240 241 241 240 241 243 245 247 247 247